When you browse on this site, cookies collect data to enhance your experience and personalize the content and advertising you see.
Visit our Privacy Policy to learn more. By continuing to use the site, you agree to this use of cookies and data.
  • In Hungary
  • List of Countries
  • For 7 days
  • Water Temperature
  • Weather Map
  • News
  • Weather Widgets
  • user-avatar
    Login

    Hourly Weather San Salvador de Jujuy

    Today, 21 November, Thursday

    Time Temperature Precipitation Wind Pressure Humidity
    00:00 +22°C° 0.1 mm 1 mps 650 mmHg 69%
    01:00 +22°C° 0.1 mm 1 mps 649 mmHg 70%
    02:00 +22°C° 0.1 mm 1 mps 649 mmHg 70%
    03:00 +22°C° 0 mm 1 mps 649 mmHg 70%
    04:00 +21°C° 0 mm 1 mps 649 mmHg 70%
    05:00 +21°C° 0 mm 1 mps 649 mmHg 71%
    06:00 +23°C° 0 mm 1 mps 650 mmHg 64%
    07:00 +26°C° 0 mm 1 mps 651 mmHg 57%
    08:00 +28°C° 0 mm 1 mps 652 mmHg 50%
    09:00 +30°C° 0.1 mm 1 mps 652 mmHg 47%
    10:00 +31°C° 0.1 mm 2 mps 652 mmHg 44%
    11:00 +33°C° 0.1 mm 3 mps 652 mmHg 40%
    12:00 +32°C° 0.3 mm 2 mps 652 mmHg 41%
    13:00 +34°C° 0.3 mm 2 mps 651 mmHg 41%
    14:00 +34°C° 0.3 mm 2 mps 651 mmHg 42%
    15:00 +32°C° 0.6 mm 2 mps 650 mmHg 45%
    16:00 +30°C° 0.6 mm 2 mps 649 mmHg 49%
    17:00 +29°C° 0.6 mm 1 mps 648 mmHg 52%
    18:00 +28°C° 0.3 mm 1 mps 648 mmHg 57%
    19:00 +27°C° 0.3 mm 1 mps 648 mmHg 62%
    20:00 +25°C° 0.3 mm 1 mps 648 mmHg 67%
    21:00 +25°C° 0.1 mm 1 mps 649 mmHg 68%
    22:00 +24°C° 0.1 mm 1 mps 649 mmHg 68%
    23:00 +24°C° 0.1 mm 2 mps 649 mmHg 69%

    Tomorrow, 22 November, Friday

    Time Temperature Precipitation Wind Pressure Humidity
    00:00 +23°C° 0 mm 1 mps 649 mmHg 68%
    01:00 +23°C° 0 mm 1 mps 648 mmHg 67%
    02:00 +23°C° 0 mm 1 mps 648 mmHg 66%
    03:00 +23°C° 0 mm 1 mps 648 mmHg 66%
    04:00 +23°C° 0 mm 1 mps 648 mmHg 66%
    05:00 +22°C° 0 mm 1 mps 648 mmHg 66%
    06:00 +25°C° 0 mm 1 mps 649 mmHg 60%
    07:00 +27°C° 0 mm 1 mps 650 mmHg 53%
    08:00 +30°C° 0 mm 1 mps 651 mmHg 47%
    09:00 +31°C° 0.5 mm 1 mps 652 mmHg 44%
    10:00 +32°C° 0.5 mm 2 mps 652 mmHg 42%
    11:00 +34°C° 0.5 mm 3 mps 652 mmHg 39%
    12:00 +34°C° 0.7 mm 2 mps 652 mmHg 39%
    13:00 +35°C° 0.7 mm 2 mps 652 mmHg 39%
    14:00 +35°C° 0.7 mm 2 mps 651 mmHg 39%
    15:00 +30°C° 1 mm 2 mps 650 mmHg 53%
    16:00 +27°C° 1 mm 2 mps 649 mmHg 67%
    17:00 +22°C° 1 mm 3 mps 648 mmHg 81%
    18:00 +23°C° 0.3 mm 2 mps 649 mmHg 79%
    19:00 +23°C° 0.3 mm 2 mps 650 mmHg 78%
    20:00 +22°C° 0.3 mm 1 mps 650 mmHg 76%
    21:00 +22°C° 0 mm 1 mps 651 mmHg 77%
    22:00 +22°C° 0 mm 1 mps 652 mmHg 77%
    23:00 +20°C° 0 mm 0 mps 652 mmHg 77%

    Day after tomorrow, 23 November, Saturday

    Time Temperature Precipitation Wind Pressure Humidity
    00:00 +20°C° 0 mm 0 mps 652 mmHg 77%
    01:00 +19°C° 0 mm 0 mps 651 mmHg 78%
    02:00 +19°C° 0 mm 0 mps 651 mmHg 79%
    03:00 +19°C° 0 mm 0 mps 651 mmHg 80%
    04:00 +18°C° 0 mm 0 mps 651 mmHg 82%
    05:00 +18°C° 0 mm 0 mps 651 mmHg 83%
    06:00 +22°C° 0 mm 1 mps 652 mmHg 77%
    07:00 +24°C° 0 mm 1 mps 652 mmHg 72%
    08:00 +25°C° 0 mm 1 mps 653 mmHg 66%
    09:00 +26°C° 0.2 mm 1 mps 653 mmHg 66%
    10:00 +26°C° 0.2 mm 2 mps 653 mmHg 65%
    11:00 +27°C° 0.2 mm 2 mps 652 mmHg 65%
    12:00 +27°C° 0.1 mm 2 mps 652 mmHg 65%
    13:00 +27°C° 0.1 mm 2 mps 651 mmHg 64%
    14:00 +27°C° 0.1 mm 2 mps 650 mmHg 64%
    15:00 +27°C° 0.1 mm 2 mps 649 mmHg 66%
    16:00 +27°C° 0.1 mm 1 mps 649 mmHg 68%
    17:00 +26°C° 0.1 mm 1 mps 648 mmHg 71%
    18:00 +25°C° 0.9 mm 1 mps 648 mmHg 76%
    19:00 +24°C° 0.9 mm 1 mps 649 mmHg 82%
    20:00 +23°C° 0.9 mm 1 mps 649 mmHg 87%
    21:00 +23°C° 0.1 mm 1 mps 649 mmHg 87%
    22:00 +22°C° 0.1 mm 1 mps 649 mmHg 87%
    23:00 +22°C° 0.1 mm 1 mps 650 mmHg 87%

    24 November, Sunday

    Time Temperature Precipitation Wind Pressure Humidity
    00:00 +22°C° 0 mm 1 mps 649 mmHg 87%
    01:00 +22°C° 0 mm 1 mps 648 mmHg 86%
    02:00 +21°C° 0 mm 1 mps 648 mmHg 86%
    03:00 +21°C° 0 mm 1 mps 648 mmHg 85%
    04:00 +21°C° 0 mm 1 mps 647 mmHg 85%
    05:00 +21°C° 0 mm 1 mps 647 mmHg 85%
    06:00 +22°C° 0 mm 1 mps 648 mmHg 79%
    07:00 +24°C° 0 mm 1 mps 648 mmHg 74%
    08:00 +26°C° 0 mm 1 mps 649 mmHg 68%
    09:00 +27°C° 0 mm 1 mps 649 mmHg 64%
    10:00 +29°C° 0 mm 2 mps 648 mmHg 60%
    11:00 +30°C° 0 mm 2 mps 648 mmHg 55%
    12:00 +31°C° 0.1 mm 2 mps 648 mmHg 53%
    13:00 +33°C° 0.1 mm 3 mps 647 mmHg 52%
    14:00 +33°C° 0.1 mm 3 mps 646 mmHg 50%
    15:00 +33°C° 0.1 mm 3 mps 645 mmHg 51%
    16:00 +32°C° 0.1 mm 2 mps 644 mmHg 52%
    17:00 +31°C° 0.1 mm 2 mps 644 mmHg 53%
    18:00 +30°C° 0.2 mm 2 mps 644 mmHg 58%
    19:00 +28°C° 0.2 mm 1 mps 644 mmHg 64%
    20:00 +26°C° 0.2 mm 1 mps 644 mmHg 69%
    21:00 +25°C° 0.3 mm 1 mps 644 mmHg 71%
    22:00 +25°C° 0.3 mm 1 mps 644 mmHg 72%
    23:00 +24°C° 0.3 mm 1 mps 645 mmHg 74%

    25 November, Monday

    Time Temperature Precipitation Wind Pressure Humidity
    00:00 +24°C° 0 mm 1 mps 644 mmHg 71%
    01:00 +24°C° 0 mm 2 mps 644 mmHg 68%
    02:00 +23°C° 0 mm 2 mps 643 mmHg 65%
    03:00 +23°C° 0 mm 2 mps 643 mmHg 61%
    04:00 +23°C° 0 mm 2 mps 643 mmHg 58%
    05:00 +22°C° 0 mm 3 mps 643 mmHg 55%
    06:00 +25°C° 0 mm 2 mps 644 mmHg 49%
    07:00 +28°C° 0 mm 1 mps 646 mmHg 42%
    08:00 +31°C° 0 mm 1 mps 647 mmHg 36%
    09:00 +32°C° 0 mm 2 mps 647 mmHg 35%
    10:00 +34°C° 0 mm 3 mps 647 mmHg 34%
    11:00 +35°C° 0 mm 4 mps 648 mmHg 34%
    12:00 +35°C° 0.2 mm 4 mps 647 mmHg 37%
    13:00 +35°C° 0.2 mm 4 mps 646 mmHg 41%
    14:00 +35°C° 0.2 mm 4 mps 646 mmHg 45%
    15:00 +32°C° 1.5 mm 4 mps 645 mmHg 55%
    16:00 +29°C° 1.5 mm 3 mps 644 mmHg 65%
    17:00 +27°C° 1.5 mm 3 mps 643 mmHg 74%
    18:00 +26°C° 0.7 mm 3 mps 643 mmHg 79%
    19:00 +24°C° 0.7 mm 2 mps 644 mmHg 84%
    20:00 +23°C° 0.7 mm 2 mps 644 mmHg 89%
    21:00 +21°C° 0.6 mm 2 mps 645 mmHg 91%
    22:00 +21°C° 0.6 mm 2 mps 646 mmHg 93%
    23:00 +20°C° 0.6 mm 2 mps 646 mmHg 94%

    26 November, Tuesday

    Time Temperature Precipitation Wind Pressure Humidity
    00:00 +20°C° 0.3 mm 2 mps 646 mmHg 94%
    01:00 +20°C° 0.3 mm 2 mps 646 mmHg 95%
    02:00 +20°C° 0.3 mm 1 mps 646 mmHg 95%
    03:00 +20°C° 0.1 mm 1 mps 646 mmHg 95%
    04:00 +19°C° 0.1 mm 2 mps 646 mmHg 95%
    05:00 +19°C° 0.1 mm 2 mps 646 mmHg 94%
    06:00 +18°C° 0.1 mm 2 mps 646 mmHg 92%
    07:00 +18°C° 0.1 mm 2 mps 647 mmHg 89%
    08:00 +18°C° 0.1 mm 2 mps 647 mmHg 87%
    09:00 +19°C° 0 mm 3 mps 647 mmHg 80%
    10:00 +20°C° 0 mm 3 mps 647 mmHg 74%
    11:00 +21°C° 0 mm 3 mps 648 mmHg 68%
    12:00 +20°C° 0 mm 4 mps 647 mmHg 69%
    13:00 +20°C° 0 mm 4 mps 646 mmHg 70%
    14:00 +19°C° 0 mm 4 mps 646 mmHg 71%
    15:00 +18°C° 0 mm 3 mps 645 mmHg 74%
    16:00 +18°C° 0 mm 3 mps 645 mmHg 78%
    17:00 +17°C° 0 mm 3 mps 645 mmHg 81%
    18:00 +16°C° 0 mm 2 mps 646 mmHg 83%
    19:00 +16°C° 0 mm 2 mps 647 mmHg 85%
    20:00 +16°C° 0 mm 2 mps 647 mmHg 87%
    21:00 +15°C° 0 mm 1 mps 648 mmHg 87%
    22:00 +15°C° 0 mm 1 mps 648 mmHg 87%
    23:00 +15°C° 0 mm 1 mps 649 mmHg 87%
    Show more